Location: Home
(42.5358°N, 72.7383°W)
Time: 15:14:19
(UTC-05:00)

Vanguard 1 - Pass Details

Date: 30 November 2021
Orbit: 652 x 3830 km, 34.2° (Epoch: 19 January)

Event Time Altitude Azimuth Distance (km) Brightness Sun altitude
Rises 00:48:34 0° 237° (WSW) 7,617 - -64.7°
Reaches altitude 10° 00:53:35 10° 234° (SW) 6,782 - -64.0°
Maximum altitude 01:16:16 59° 162° (SSE) 3,980 - -61.0°
Exits shadow 01:23:11 45° 114° (ESE) 4,081 13.0 -60.0°
Drops below altitude 10° 01:33:52 10° 90° (E) 5,454 14.1 -58.3°
Sets 01:37:21 0° 86° (E) 6,121 14.5 -57.8°
